SCP
0 0 0 0 -0 0 -0 -0 -0 0 0 -0 0 0 0 0 0 0 -0 0 0 0 -0 -0 -0 -0 -0 0 0 0 0 0 -0 -0 -0 -0 -0 0 0 0 0 0 0 0 0 0 0 0 0
0 0 0 0 -0 -0 -0 -0 0 0 0 -0 -0 0 0 0 -0 -0 -0 -0 0 0 0 0 -0 -0 0 -0 -0 0 -0 -0 -0 -0 -0 -0 0 0 0 -0 0 0 0 0 0 0 0 0 0
0 0 -0 0 0 0 0 0 -0 -0 -0 0 0 0 0 0 0 0 0 0 -0 0 0 0 0 0 0 0 0 -0 -0 -0 -0 -0 -0 -0 0 0 0 0 0 0 -0 0 0 0 0 0 0
0 0 -0 -0 0 0 -0 -0 -0 -0 -0 -0 0 0 -0 0 0 0 -0 -0 -0 0 0 0 0 0 0 -0 0 0 -0 -0 -0 -0 -0 -0 0 0 0 0 -0 -0 0 0 0 0 0 0 0
0 0 0 0 -0 -0 0 0 -0 -0 -0 -0 0 0 0 0 -0 -0 -0 -0 -0 0 0 0 0 0 0 0 0 -0 -0 -0 -0 -0 -0 0 0 0 0 -0 -0 -0 -0 0 0 0 0 0 0
0 0 0 0 -0 -0 -0 -0 0 -0 -0 -0 0 0 0 -0 -0 -0 -0 -0 -0 0 0 0 -0 0 0 0 -0 -0 -0 -0 -0 0 0 -0 0 0 -0 -0 -0 -0 -0 -0 0 -0 -0 -0 -0
0 0 -0 -0 -0 -0 -0 -0 -0 0 -0 0 0 0 0 0 -0 -0 -0 -0 -0 0 0 0 0 0 0 -0 -0 -0 -0 -0 0 0 0 -0 -0 -0 -0 -0 -0 -0 -0 -0 -0 -0 -0 -0 0
0 0 -0 -0 -0 -0 0 0 0 0 -0 -0 0 0 0 -0 -0 -0 -0 -0 -0 0 0 0 0 -0 0 0 0 0 0 0 0 0 0 -0 -0 -0 -0 0 -0 -0 -0 -0 -0 -0 -0 0 0
0 0 0 -0 -0 -0 -0 -0 0 0 -0 -0 0 0 0 -0 -0 -0 0 0 -0 -0 -0 0 0 0 0 0 0 0 0 0 0 0 0 -0 -0 -0 -0 0 -0 -0 -0 -0 -0 0 0 0 0
0 0 -0 0 0 -0 -0 0 -0 -0 -0 -0 -0 -0 -0 -0 0 0 -0 0 0 0 0 0 0 0 0 0 0 0 0 0 0 0 0 -0 -0 -0 -0 -0 -0 -0 -0 -0 0 0 0 0 0
-0 0 -0 0 0 0 -0 0 -0 0 0 0 0 -0 -0 0 -0 -0 -0 -0 -0 0 0 0 0 0 0 0 0 0 0 0 0 0 0 -0 -0 -0 -0 0 -0 -0 -0 0 0 0 0 0 0
-0 0 0 -0 -0 0 -0 0 0 0 0 0 0 0 -0 -0 -0 -0 -0 0 0 0 0 0 0 0 0 0 0 0 0 0 0 0 0 -0 0 0 0 0 -0 -0 0 0 0 0 0 0 0
-0 0 0 0 0 0 0 -0 0 0 0 0 0 0 -0 -0 -0 0 0 0 0 0 0 0 0 0 0 0 0 0 0 0 0 0 0 0 0 0 0 -0 -0 -0 -0 0 0 0 0 0 0
0 0 0 0 0 0 -0 -0 0 0 0 0 0 0 0 -0 -0 0 0 0 0 0 0 0 0 0 0 0 0 0 0 0 0 0 0 0 0 0 -0 -0 -0 -0 -0 -0 0 0 0 0 0
0 0 0 0 0 0 0 0 0 0 0 0 0 0 0 0 0 0 0 0 0 0 0 0 0 0 0 0 0 0 0 0 0 0 0 0 0 -0 -0 -0 -0 -0 -0 -0 0 0 0 0 0
0 0 0 0 0 0 0 0 0 0 0 0 0 0 0 0 0 0 0 0 0 0 0 0 0 0 0 0 0 0 0 0 0 0 0 0 0 0 -0 -0 -0 -0 -0 -0 -0 0 0 0 0
0 0 0 0 0 0 0 0 0 0 0 0 0 0 0 0 0 0 0 0 0 0 0 0 0 0 0 0 0 0 0 0 0 0 0 0 0 -0 -0 -0 -0 -0 -0 -0 -0 0 0 0 0
0 0 0 0 0 0 0 0 0 0 0 0 0 0 0 0 0 0 0 0 0 0 0 0 0 0 0 0 0 0 0 0 0 0 0 0 0 -0 -0 -0 -0 -0 -0 -0 -0 0 0 0 0
0 0 0 0 0 0 0 0 0 0 0 0 0 0 0 0 0 0 0 0 0 0 0 0 0 0 0 0 0 0 0 0 0 0 0 0 0 -0 -0 -0 -0 -0 -0 -0 -0 -0 0 0 0
0 0 0 0 0 0 0 0 0 0 0 0 0 0 0 0 0 0 0 0 0 0 0 0 0 0 0 0 0 0 0 0 0 0 0 0 0 0 0 -0 -0 -0 -0 -0 0 0 0 0 0
0 0 0 0 0 0 0 0 0 0 0 0 0 0 0 0 0 0 0 0 0 0 0 0 0 0 0 0 0 0 0 0 0 0 0 0 0 0 0 -0 -0 -0 -0 -0 -0 0 0 0 0
0 0 0 0 0 0 0 0 0 0 0 0 0 0 0 0 0 0 0 0 0 0 0 0 0 0 0 0 0 0 0 0 0 0 0 0 0 0 0 -0 -0 -0 -0 -0 -0 -0 0 0 0
0 0 0 0 0 0 0 0 0 0 0 0 0 0 0 0 0 0 0 0 0 0 0 0 0 0 0 0 0 0 0 0 0 0 0 0 0 0 0 0 -0 -0 -0 -0 0 0 0 0 0
0 0 0 0 0 0 0 0 0 0 0 0 0 0 0 0 0 0 0 0 0 0 0 0 0 0 0 0 0 0 0 0 0 0 0 0 0 0 0 0 -0 -0 -0 -0 -0 0 0 0 0
0 0 0 0 0 0 0 0 0 0 0 0 0 0 0 0 0 0 0 0 0 0 0 0 0 0 0 0 0 0 0 0 0 0 0 0 0 0 0 0 0 -0 -0 -0 -0 0 0 0 0
0 0 0 0 0 0 0 0 0 0 0 0 0 0 0 0 0 0 0 0 0 0 0 0 0 0 0 0 0 0 0 0 0 0 0 0 0 0 0 0 0 -0 -0 -0 -0 0 0 0 0
0 0 0 0 0 0 0 0 0 0 0 0 0 0 0 0 0 0 0 0 0 0 0 0 0 0 0 0 0 0 0 0 0 0 0 0 0 0 0 0 0 0 -0 -0 0 0 0 0 0
0 0 0 0 0 0 0 0 0 0 0 0 0 0 0 0 -0 0 0 0 0 0 0 0 0 0 0 0 0 0 0 0 0 0 0 0 0 0 0 0 0 -0 -0 0 0 0 0 0 0
0 0 0 0 0 0 0 0 0 0 0 0 0 0 0 0 -0 0 0 0 0 0 0 0 0 0 0 0 0 0 0 0 0 0 0 0 0 0 0 0 0 0 0 0 0 0 0 0 0
0 0 0 0 0 0 0 0 0 0 0 0 0 0 0 -0 -0 0 0 0 0 0 0 0 0 0 0 0 0 0 0 0 0 0 0 0 0 0 0 0 0 0 0 0 0 0 0 0 0
Wind_Speed_500mb
3 2 2 7 11 12 9 11 21 15 9 12 1 6 12 18 11 6 8 2 13 21 27 34 38 39 38 37 35 33 30 28 24 23 24 25 26 27 28 30 30 30 32 33 34 37 42 49 55
2 3 5 11 13 15 12 13 16 13 14 20 15 3 2 10 12 9 5 9 16 22 30 35 38 36 34 32 32 30 26 24 23 25 25 25 29 30 29 29 29 28 30 31 35 38 43 45 50
3 4 14 6 7 12 14 10 21 22 16 7 8 3 3 7 10 7 3 7 15 26 32 35 37 35 31 29 26 22 21 25 29 28 31 32 28 27 24 23 21 23 24 25 28 30 33 38 44
2 7 10 16 7 11 13 15 19 23 5 5 5 8 9 7 5 7 1 11 19 26 33 36 32 27 26 24 24 22 24 26 28 32 36 39 39 38 39 39 37 35 37 37 38 39 39 37 36
5 9 8 6 8 11 10 14 16 12 12 11 4 8 7 3 6 4 4 10 20 28 32 33 30 27 25 25 24 22 23 30 35 37 42 47 48 48 45 40 36 37 37 36 38 38 42 44 45
14 10 10 11 10 11 13 14 13 8 5 7 4 8 8 10 7 4 4 14 22 28 31 30 28 23 21 21 22 26 32 34 35 36 40 44 43 42 43 42 37 37 35 36 40 43 43 45 45
19 12 8 5 9 11 12 13 11 9 9 7 4 2 8 13 12 6 7 14 22 26 27 26 22 22 20 20 24 29 32 32 31 32 36 37 42 44 44 38 37 38 36 39 39 43 45 50 45
8 8 5 2 9 8 16 21 4 8 11 6 2 2 10 13 12 7 7 14 20 25 25 21 20 19 22 25 30 32 34 32 29 28 29 34 39 35 37 41 39 37 38 45 43 42 45 50 55
4 9 10 5 5 12 13 14 6 4 6 8 4 5 9 14 10 3 7 10 13 22 22 19 18 22 24 24 24 31 29 31 28 26 30 32 33 35 35 40 36 34 40 44 44 42 39 42 54
12 13 3 11 10 5 16 11 12 9 12 11 8 7 12 10 10 7 3 4 11 18 19 19 21 22 21 21 22 24 24 25 27 29 31 31 34 34 36 33 35 35 36 39 39 43 38 38 47
8 8 12 8 9 6 9 9 8 9 9 10 10 21 19 15 14 11 5 6 12 16 16 14 16 18 18 19 21 21 22 25 28 30 32 33 35 36 35 39 42 41 38 37 40 40 45 33 33
12 7 6 9 6 5 5 2 5 18 5 5 6 17 21 20 17 13 7 6 9 12 11 11 14 16 15 17 20 22 24 27 29 32 33 35 36 36 41 44 45 43 41 38 35 37 32 37 33
16 11 9 9 10 6 4 8 11 13 17 13 9 16 21 21 20 16 12 6 7 8 7 8 12 13 14 15 17 19 23 26 30 31 34 36 37 41 46 47 47 46 42 40 36 34 30 35 36
7 14 13 7 7 4 5 8 4 7 13 15 16 19 23 25 23 17 12 8 6 6 4 5 9 10 12 13 16 18 22 26 28 30 34 35 39 43 46 47 46 47 48 44 37 33 33 36 35
19 10 9 11 8 2 5 13 18 10 11 17 20 22 25 25 24 19 15 12 8 6 3 2 6 8 9 10 13 15 19 23 25 29 32 34 39 42 44 44 45 48 45 42 34 26 27 29 30
10 7 12 13 11 4 5 13 15 8 17 22 24 28 30 30 28 23 21 17 13 9 7 5 6 8 8 9 10 13 16 20 24 27 30 33 36 38 41 44 43 43 43 42 37 29 23 21 27
12 13 26 9 10 4 14 10 8 7 15 21 27 31 29 30 30 27 24 22 17 13 10 9 9 12 10 8 8 12 15 18 21 24 27 30 34 36 40 42 39 40 41 43 43 34 27 20 20
14 20 8 18 10 11 13 30 18 19 21 24 23 26 30 33 35 31 28 27 23 16 13 13 14 15 11 6 6 10 12 15 19 21 25 29 31 34 37 38 37 40 42 42 40 41 37 26 15
5 14 11 8 4 6 19 29 28 29 33 29 30 31 33 37 32 34 32 33 27 22 18 17 17 17 12 6 2 5 8 12 15 19 23 25 28 30 33 36 35 40 44 43 40 37 35 37 15
11 9 7 6 5 4 12 32 32 30 29 25 26 30 34 33 35 39 38 38 34 27 22 21 21 22 16 11 5 3 6 9 12 16 20 21 24 28 33 34 36 39 38 35 36 37 37 39 44
21 22 13 4 8 6 13 18 15 8 5 7 8 11 16 28 38 44 41 37 35 31 27 24 24 25 21 15 8 5 6 6 9 13 16 18 21 27 31 32 36 37 39 41 40 39 37 35 34
26 14 7 13 7 8 3 9 7 2 5 9 8 8 8 13 25 39 40 38 34 32 31 27 26 28 25 18 11 9 8 6 6 9 12 14 18 25 28 31 35 37 39 39 41 40 38 34 35
3 12 15 12 10 5 12 9 4 4 11 9 7 12 11 7 14 27 37 38 35 35 32 28 29 29 27 20 15 13 13 11 7 8 10 11 16 22 25 29 33 35 38 40 39 37 37 36 36
28 20 15 8 6 7 13 10 9 6 1 11 16 16 14 5 5 18 30 35 34 37 34 32 31 31 28 22 18 16 16 13 10 7 7 9 14 18 21 28 32 35 36 37 39 38 36 36 36
12 26 7 7 8 8 5 9 15 13 7 4 11 18 15 7 7 17 30 36 37 39 37 34 33 33 29 23 19 17 17 16 12 9 7 7 11 15 18 25 30 32 36 38 37 35 34 35 35
25 16 8 11 11 8 6 14 4 7 10 5 9 11 9 8 4 13 26 35 38 41 39 37 35 34 30 24 20 19 18 17 14 10 9 8 9 12 16 23 28 31 35 36 35 34 34 34 34
15 15 7 8 3 3 12 10 10 10 12 10 15 16 16 7 3 8 21 32 36 42 42 39 38 37 34 28 23 21 21 20 16 13 10 8 8 10 15 20 26 29 32 33 33 32 33 32 32
6 3 8 7 9 10 12 9 12 19 21 15 11 9 12 11 9 7 17 30 36 40 41 40 37 36 34 29 25 23 22 21 18 15 12 10 10 11 15 18 22 27 29 30 30 30 31 31 29
9 8 8 5 5 6 6 8 17 31 31 17 10 5 8 11 9 13 14 24 35 40 44 42 41 40 38 33 29 26 24 23 20 17 15 13 11 11 14 17 19 23 27 27 28 28 30 29 28
6 8 17 10 12 5 5 2 6 21 32 12 9 5 4 7 8 12 15 21 33 41 44 44 42 41 39 37 33 30 27 26 23 20 18 17 14 12 15 15 17 19 23 24 24 26 27 28 27
Wind_Direction_500mb
13 60 358 260 236 242 95 88 101 111 106 108 349 319 27 39 13 35 148 21 348 351 349 348 347 343 343 346 345 349 349 343 342 349 346 340 338 334 331 328 325 319 317 315 313 306 299 293 287
115 145 251 267 259 234 96 110 123 85 112 124 132 218 357 78 67 102 113 338 351 347 351 348 346 344 347 350 349 352 350 347 356 360 354 349 354 353 346 343 338 332 327 319 312 309 304 299 294
137 168 261 257 281 346 57 92 105 107 127 147 149 61 73 77 84 108 212 338 350 351 350 348 349 349 351 348 350 350 359 10 13 9 8 10 6 358 1 2 1 2 353 343 336 331 322 313 304
260 211 231 240 53 57 59 107 142 126 104 174 166 102 87 130 133 153 9 0 352 350 351 350 349 349 354 353 1 8 19 23 19 22 23 20 16 15 17 15 15 7 3 1 355 354 350 346 339
249 239 223 238 104 107 96 123 162 146 135 143 186 115 87 182 162 182 24 341 356 351 352 350 353 357 359 5 11 19 28 32 32 29 24 24 25 21 15 12 15 14 9 8 7 9 6 5 357
228 278 224 202 109 110 125 146 155 171 112 136 166 129 99 184 169 201 315 348 356 352 351 354 354 2 8 12 24 28 29 34 34 30 27 24 23 23 21 20 18 20 23 24 22 24 24 19 13
274 240 28 74 114 144 139 158 178 181 159 111 72 197 127 173 191 227 308 348 351 350 352 354 356 8 14 31 35 32 37 38 35 30 27 27 30 24 25 26 30 32 33 33 33 35 29 21 15
271 273 196 188 173 104 138 159 198 217 114 128 158 89 98 180 208 225 315 344 347 352 354 353 6 14 27 29 33 36 36 34 33 31 32 36 32 22 23 33 34 35 34 35 35 40 30 25 28
247 249 212 158 192 103 150 177 142 172 147 172 142 86 137 186 196 208 333 359 357 350 352 3 15 26 30 34 33 36 36 38 39 38 36 40 32 26 28 34 34 37 35 38 34 35 28 26 36
236 248 75 32 51 93 163 204 160 199 187 203 178 194 183 191 179 180 222 311 342 342 354 9 23 28 38 41 40 40 38 38 36 35 32 33 36 34 35 37 39 38 36 36 36 36 28 29 38
190 302 103 91 82 43 144 195 183 226 229 238 221 194 184 178 185 190 214 299 328 348 355 12 30 41 47 54 52 44 40 36 34 35 35 36 40 37 39 39 37 34 32 32 34 31 31 28 34
184 85 53 132 111 103 163 155 225 231 40 95 145 170 180 184 189 192 197 289 339 341 346 15 42 53 59 59 48 45 40 39 38 39 39 40 40 40 38 36 34 32 32 33 31 32 29 33 39
224 140 101 117 129 132 140 217 266 247 230 227 192 174 185 189 191 198 227 271 313 326 337 25 52 61 61 57 53 46 43 40 40 41 43 45 44 44 43 40 37 33 32 36 34 36 36 43 41
119 142 125 139 141 140 236 220 249 177 191 202 199 199 195 195 194 201 222 246 285 304 315 46 70 76 71 70 55 47 40 41 44 48 49 48 47 47 46 43 42 41 37 37 36 50 48 49 43
145 138 160 176 181 169 275 235 229 172 181 200 206 204 201 201 199 203 211 219 248 260 256 128 98 108 99 70 62 46 44 50 53 54 52 50 49 49 47 45 43 43 42 42 40 54 51 46 35
192 229 209 134 183 159 250 269 141 183 209 217 210 210 209 206 208 204 214 221 230 233 213 170 142 144 127 100 65 48 51 56 58 57 56 53 52 51 52 50 46 46 46 46 46 45 42 47 52
200 243 221 157 203 169 223 282 140 201 212 223 220 219 214 212 210 207 211 219 222 219 206 184 171 161 143 108 67 55 58 62 60 60 60 57 54 54 56 54 51 52 51 50 51 45 39 38 47
198 226 220 226 155 223 221 257 260 222 222 233 236 229 224 222 217 208 207 212 217 218 209 197 186 172 156 126 74 63 68 67 64 61 60 59 57 57 57 57 56 56 54 53 51 47 38 31 45
309 227 227 80 59 268 247 270 271 258 236 244 247 243 231 229 221 210 203 212 217 217 210 203 194 186 179 174 96 71 78 75 70 65 63 61 60 61 61 60 58 59 53 49 48 50 49 46 38
191 184 182 133 106 266 299 287 276 265 254 247 253 246 241 230 214 206 205 211 214 215 209 204 200 196 199 200 186 139 110 91 78 73 69 65 63 62 62 60 61 60 63 61 57 53 50 42 40
216 227 212 315 150 220 293 265 242 112 98 192 256 255 255 236 218 208 205 204 205 209 210 206 203 200 204 204 201 178 149 112 84 74 71 66 65 65 62 60 60 58 58 56 55 55 54 56 53
217 207 192 165 200 268 223 297 264 218 155 134 105 51 347 253 221 211 204 201 199 203 206 206 205 202 201 200 207 202 182 155 115 92 81 70 66 66 64 61 60 57 56 55 54 53 54 57 60
115 155 169 176 213 303 196 250 233 215 164 109 68 349 345 310 225 208 201 199 195 200 205 205 203 200 196 200 205 200 189 179 162 121 99 83 73 68 69 66 63 61 57 56 54 54 54 55 58
137 123 106 136 177 236 221 230 236 175 34 341 21 19 13 6 175 187 192 191 190 202 201 203 201 195 196 199 204 200 189 185 182 155 127 101 82 76 71 71 68 64 62 58 55 53 53 53 56
183 167 148 184 196 231 156 207 278 135 110 21 29 28 21 41 149 174 183 188 192 200 202 204 202 199 200 204 205 204 196 193 190 174 156 122 93 82 77 75 72 68 65 60 57 55 56 57 55
196 205 214 210 198 163 137 222 224 87 110 90 48 20 20 39 87 184 191 196 199 202 205 208 206 204 206 208 208 207 203 201 201 195 180 147 114 97 89 84 79 73 68 61 58 56 55 55 55
174 217 39 104 62 215 191 229 157 131 132 110 57 36 24 15 331 199 201 201 203 206 210 212 211 207 208 209 210 211 208 206 203 197 192 164 137 111 98 89 84 78 72 66 61 57 57 53 53
278 24 163 229 186 223 189 263 230 176 160 134 95 47 11 345 313 250 214 203 205 209 212 215 215 215 215 214 214 215 213 211 210 204 194 178 158 135 112 100 88 86 78 71 67 62 59 57 54
161 187 227 248 271 239 210 224 346 166 158 130 104 66 319 311 296 273 237 214 208 209 213 215 216 217 215 216 219 220 219 216 211 205 200 193 178 154 128 111 100 92 87 78 72 67 64 61 58
334 226 189 198 192 246 337 152 55 134 147 112 65 42 345 330 295 245 236 218 211 211 214 218 220 222 220 220 222 223 222 220 217 213 207 196 187 175 145 128 112 107 93 85 79 73 68 66 64
Wind_Speed_850mb
3 2 2 7 11 12 9 11 21 15 9 12 1 6 12 18 11 6 8 2 13 21 27 34 38 39 38 37 35 33 30 28 24 23 24 25 26 27 28 30 30 30 32 33 34 37 42 49 55
2 3 5 11 13 15 12 13 16 13 14 20 15 3 2 10 12 9 5 9 16 22 30 35 38 36 34 32 32 30 26 24 23 25 25 25 29 30 29 29 29 28 30 31 35 38 43 45 50
3 4 14 6 7 12 14 10 21 22 16 7 8 3 3 7 10 7 3 7 15 26 32 35 37 35 31 29 26 22 21 25 29 28 31 32 28 27 24 23 21 23 24 25 28 30 33 38 44
2 7 10 16 7 11 13 15 19 23 5 5 5 8 9 7 5 7 1 11 19 26 33 36 32 27 26 24 24 22 24 26 28 32 36 39 39 38 39 39 37 35 37 37 38 39 39 37 36
5 9 8 6 8 11 10 14 16 12 12 11 4 8 7 3 6 4 4 10 20 28 32 33 30 27 25 25 24 22 23 30 35 37 42 47 48 48 45 40 36 37 37 36 38 38 42 44 45
14 10 10 11 10 11 13 14 13 8 5 7 4 8 8 10 7 4 4 14 22 28 31 30 28 23 21 21 22 26 32 34 35 36 40 44 43 42 43 42 37 37 35 36 40 43 43 45 45
19 12 8 5 9 11 12 13 11 9 9 7 4 2 8 13 12 6 7 14 22 26 27 26 22 22 20 20 24 29 32 32 31 32 36 37 42 44 44 38 37 38 36 39 39 43 45 50 45
8 8 5 2 9 8 16 21 4 8 11 6 2 2 10 13 12 7 7 14 20 25 25 21 20 19 22 25 30 32 34 32 29 28 29 34 39 35 37 41 39 37 38 45 43 42 45 50 55
4 9 10 5 5 12 13 14 6 4 6 8 4 5 9 14 10 3 7 10 13 22 22 19 18 22 24 24 24 31 29 31 28 26 30 32 33 35 35 40 36 34 40 44 44 42 39 42 54
12 13 3 11 10 5 16 11 12 9 12 11 8 7 12 10 10 7 3 4 11 18 19 19 21 22 21 21 22 24 24 25 27 29 31 31 34 34 36 33 35 35 36 39 39 43 38 38 47
8 8 12 8 9 6 9 9 8 9 9 10 10 21 19 15 14 11 5 6 12 16 16 14 16 18 18 19 21 21 22 25 28 30 32 33 35 36 35 39 42 41 38 37 40 40 45 33 33
12 7 6 9 6 5 5 2 5 18 5 5 6 17 21 20 17 13 7 6 9 12 11 11 14 16 15 17 20 22 24 27 29 32 33 35 36 36 41 44 45 43 41 38 35 37 32 37 33
16 11 9 9 10 6 4 8 11 13 17 13 9 16 21 21 20 16 12 6 7 8 7 8 12 13 14 15 17 19 23 26 30 31 34 36 37 41 46 47 47 46 42 40 36 34 30 35 36
7 14 13 7 7 4 5 8 4 7 13 15 16 19 23 25 23 17 12 8 6 6 4 5 9 10 12 13 16 18 22 26 28 30 34 35 39 43 46 47 46 47 48 44 37 33 33 36 35
19 10 9 11 8 2 5 13 18 10 11 17 20 22 25 25 24 19 15 12 8 6 3 2 6 8 9 10 13 15 19 23 25 29 32 34 39 42 44 44 45 48 45 42 34 26 27 29 30
10 7 12 13 11 4 5 13 15 8 17 22 24 28 30 30 28 23 21 17 13 9 7 5 6 8 8 9 10 13 16 20 24 27 30 33 36 38 41 44 43 43 43 42 37 29 23 21 27
12 13 26 9 10 4 14 10 8 7 15 21 27 31 29 30 30 27 24 22 17 13 10 9 9 12 10 8 8 12 15 18 21 24 27 30 34 36 40 42 39 40 41 43 43 34 27 20 20
14 20 8 18 10 11 13 30 18 19 21 24 23 26 30 33 35 31 28 27 23 16 13 13 14 15 11 6 6 10 12 15 19 21 25 29 31 34 37 38 37 40 42 42 40 41 37 26 15
5 14 11 8 4 6 19 29 28 29 33 29 30 31 33 37 32 34 32 33 27 22 18 17 17 17 12 6 2 5 8 12 15 19 23 25 28 30 33 36 35 40 44 43 40 37 35 37 15
11 9 7 6 5 4 12 32 32 30 29 25 26 30 34 33 35 39 38 38 34 27 22 21 21 22 16 11 5 3 6 9 12 16 20 21 24 28 33 34 36 39 38 35 36 37 37 39 44
21 22 13 4 8 6 13 18 15 8 5 7 8 11 16 28 38 44 41 37 35 31 27 24 24 25 21 15 8 5 6 6 9 13 16 18 21 27 31 32 36 37 39 41 40 39 37 35 34
26 14 7 13 7 8 3 9 7 2 5 9 8 8 8 13 25 39 40 38 34 32 31 27 26 28 25 18 11 9 8 6 6 9 12 14 18 25 28 31 35 37 39 39 41 40 38 34 35
3 12 15 12 10 5 12 9 4 4 11 9 7 12 11 7 14 27 37 38 35 35 32 28 29 29 27 20 15 13 13 11 7 8 10 11 16 22 25 29 33 35 38 40 39 37 37 36 36
28 20 15 8 6 7 13 10 9 6 1 11 16 16 14 5 5 18 30 35 34 37 34 32 31 31 28 22 18 16 16 13 10 7 7 9 14 18 21 28 32 35 36 37 39 38 36 36 36
12 26 7 7 8 8 5 9 15 13 7 4 11 18 15 7 7 17 30 36 37 39 37 34 33 33 29 23 19 17 17 16 12 9 7 7 11 15 18 25 30 32 36 38 37 35 34 35 35
25 16 8 11 11 8 6 14 4 7 10 5 9 11 9 8 4 13 26 35 38 41 39 37 35 34 30 24 20 19 18 17 14 10 9 8 9 12 16 23 28 31 35 36 35 34 34 34 34
15 15 7 8 3 3 12 10 10 10 12 10 15 16 16 7 3 8 21 32 36 42 42 39 38 37 34 28 23 21 21 20 16 13 10 8 8 10 15 20 26 29 32 33 33 32 33 32 32
6 3 8 7 9 10 12 9 12 19 21 15 11 9 12 11 9 7 17 30 36 40 41 40 37 36 34 29 25 23 22 21 18 15 12 10 10 11 15 18 22 27 29 30 30 30 31 31 29
9 8 8 5 5 6 6 8 17 31 31 17 10 5 8 11 9 13 14 24 35 40 44 42 41 40 38 33 29 26 24 23 20 17 15 13 11 11 14 17 19 23 27 27 28 28 30 29 28
6 8 17 10 12 5 5 2 6 21 32 12 9 5 4 7 8 12 15 21 33 41 44 44 42 41 39 37 33 30 27 26 23 20 18 17 14 12 15 15 17 19 23 24 24 26 27 28 27
Wind_Direction_850mb
13 60 358 260 236 242 95 88 101 111 106 108 349 319 27 39 13 35 148 21 348 351 349 348 347 343 343 346 345 349 349 343 342 349 346 340 338 334 331 328 325 319 317 315 313 306 299 293 287
115 145 251 267 259 234 96 110 123 85 112 124 132 218 357 78 67 102 113 338 351 347 351 348 346 344 347 350 349 352 350 347 356 360 354 349 354 353 346 343 338 332 327 319 312 309 304 299 294
137 168 261 257 281 346 57 92 105 107 127 147 149 61 73 77 84 108 212 338 350 351 350 348 349 349 351 348 350 350 359 10 13 9 8 10 6 358 1 2 1 2 353 343 336 331 322 313 304
260 211 231 240 53 57 59 107 142 126 104 174 166 102 87 130 133 153 9 0 352 350 351 350 349 349 354 353 1 8 19 23 19 22 23 20 16 15 17 15 15 7 3 1 355 354 350 346 339
249 239 223 238 104 107 96 123 162 146 135 143 186 115 87 182 162 182 24 341 356 351 352 350 353 357 359 5 11 19 28 32 32 29 24 24 25 21 15 12 15 14 9 8 7 9 6 5 357
228 278 224 202 109 110 125 146 155 171 112 136 166 129 99 184 169 201 315 348 356 352 351 354 354 2 8 12 24 28 29 34 34 30 27 24 23 23 21 20 18 20 23 24 22 24 24 19 13
274 240 28 74 114 144 139 158 178 181 159 111 72 197 127 173 191 227 308 348 351 350 352 354 356 8 14 31 35 32 37 38 35 30 27 27 30 24 25 26 30 32 33 33 33 35 29 21 15
271 273 196 188 173 104 138 159 198 217 114 128 158 89 98 180 208 225 315 344 347 352 354 353 6 14 27 29 33 36 36 34 33 31 32 36 32 22 23 33 34 35 34 35 35 40 30 25 28
247 249 212 158 192 103 150 177 142 172 147 172 142 86 137 186 196 208 333 359 357 350 352 3 15 26 30 34 33 36 36 38 39 38 36 40 32 26 28 34 34 37 35 38 34 35 28 26 36
236 248 75 32 51 93 163 204 160 199 187 203 178 194 183 191 179 180 222 311 342 342 354 9 23 28 38 41 40 40 38 38 36 35 32 33 36 34 35 37 39 38 36 36 36 36 28 29 38
190 302 103 91 82 43 144 195 183 226 229 238 221 194 184 178 185 190 214 299 328 348 355 12 30 41 47 54 52 44 40 36 34 35 35 36 40 37 39 39 37 34 32 32 34 31 31 28 34
184 85 53 132 111 103 163 155 225 231 40 95 145 170 180 184 189 192 197 289 339 341 346 15 42 53 59 59 48 45 40 39 38 39 39 40 40 40 38 36 34 32 32 33 31 32 29 33 39
224 140 101 117 129 132 140 217 266 247 230 227 192 174 185 189 191 198 227 271 313 326 337 25 52 61 61 57 53 46 43 40 40 41 43 45 44 44 43 40 37 33 32 36 34 36 36 43 41
119 142 125 139 141 140 236 220 249 177 191 202 199 199 195 195 194 201 222 246 285 304 315 46 70 76 71 70 55 47 40 41 44 48 49 48 47 47 46 43 42 41 37 37 36 50 48 49 43
145 138 160 176 181 169 275 235 229 172 181 200 206 204 201 201 199 203 211 219 248 260 256 128 98 108 99 70 62 46 44 50 53 54 52 50 49 49 47 45 43 43 42 42 40 54 51 46 35
192 229 209 134 183 159 250 269 141 183 209 217 210 210 209 206 208 204 214 221 230 233 213 170 142 144 127 100 65 48 51 56 58 57 56 53 52 51 52 50 46 46 46 46 46 45 42 47 52
200 243 221 157 203 169 223 282 140 201 212 223 220 219 214 212 210 207 211 219 222 219 206 184 171 161 143 108 67 55 58 62 60 60 60 57 54 54 56 54 51 52 51 50 51 45 39 38 47
198 226 220 226 155 223 221 257 260 222 222 233 236 229 224 222 217 208 207 212 217 218 209 197 186 172 156 126 74 63 68 67 64 61 60 59 57 57 57 57 56 56 54 53 51 47 38 31 45
309 227 227 80 59 268 247 270 271 258 236 244 247 243 231 229 221 210 203 212 217 217 210 203 194 186 179 174 96 71 78 75 70 65 63 61 60 61 61 60 58 59 53 49 48 50 49 46 38
191 184 182 133 106 266 299 287 276 265 254 247 253 246 241 230 214 206 205 211 214 215 209 204 200 196 199 200 186 139 110 91 78 73 69 65 63 62 62 60 61 60 63 61 57 53 50 42 40
216 227 212 315 150 220 293 265 242 112 98 192 256 255 255 236 218 208 205 204 205 209 210 206 203 200 204 204 201 178 149 112 84 74 71 66 65 65 62 60 60 58 58 56 55 55 54 56 53
217 207 192 165 200 268 223 297 264 218 155 134 105 51 347 253 221 211 204 201 199 203 206 206 205 202 201 200 207 202 182 155 115 92 81 70 66 66 64 61 60 57 56 55 54 53 54 57 60
115 155 169 176 213 303 196 250 233 215 164 109 68 349 345 310 225 208 201 199 195 200 205 205 203 200 196 200 205 200 189 179 162 121 99 83 73 68 69 66 63 61 57 56 54 54 54 55 58
137 123 106 136 177 236 221 230 236 175 34 341 21 19 13 6 175 187 192 191 190 202 201 203 201 195 196 199 204 200 189 185 182 155 127 101 82 76 71 71 68 64 62 58 55 53 53 53 56
183 167 148 184 196 231 156 207 278 135 110 21 29 28 21 41 149 174 183 188 192 200 202 204 202 199 200 204 205 204 196 193 190 174 156 122 93 82 77 75 72 68 65 60 57 55 56 57 55
196 205 214 210 198 163 137 222 224 87 110 90 48 20 20 39 87 184 191 196 199 202 205 208 206 204 206 208 208 207 203 201 201 195 180 147 114 97 89 84 79 73 68 61 58 56 55 55 55
174 217 39 104 62 215 191 229 157 131 132 110 57 36 24 15 331 199 201 201 203 206 210 212 211 207 208 209 210 211 208 206 203 197 192 164 137 111 98 89 84 78 72 66 61 57 57 53 53
278 24 163 229 186 223 189 263 230 176 160 134 95 47 11 345 313 250 214 203 205 209 212 215 215 215 215 214 214 215 213 211 210 204 194 178 158 135 112 100 88 86 78 71 67 62 59 57 54
161 187 227 248 271 239 210 224 346 166 158 130 104 66 319 311 296 273 237 214 208 209 213 215 216 217 215 216 219 220 219 216 211 205 200 193 178 154 128 111 100 92 87 78 72 67 64 61 58
334 226 189 198 192 246 337 152 55 134 147 112 65 42 345 330 295 245 236 218 211 211 214 218 220 222 220 220 222 223 222 220 217 213 207 196 187 175 145 128 112 107 93 85 79 73 68 66 64